Location: Newark
(47.5833°N, 8.1500°E)
Time: 18:34:59
(UTC+00:00)

Transit 2A - Pass Details

Date: 02 November 2020
Orbit: 595 x 964 km, 66.7° (Epoch: 01 December)

Event Time Altitude Azimuth Distance (km) Brightness Sun altitude
Rises 07:27:58 0° 326° (NW) 3,473 8.8 10.2°
Reaches altitude 10° 07:30:36 10° 329° (NNW) 2,477 8.1 10.5°
Maximum altitude 07:36:16 66° 52° (NE) 857 6.6 11.3°
Drops below altitude 10° 07:41:19 10° 134° (SE) 2,212 11.3 12.0°
Sets 07:43:33 0° 138° (SE) 3,074 11.1 12.3°
